Weather History for KCEC - February, 2014

Change the Weather History Date:

Saturday, February 15, 2014

  Actual Average Record
Temperature  
Mean Temperature 52 °F 48 °F  
Max Temperature 56 °F 53 °F 72 °F (2015)
Min Temperature 47 °F 42 °F 32 °F (1965)
Degree Days  
Heating Degree Days 13 17  
Month to date heating degree days 246 269  
Since 1 July heating degree days 2967 2955  
Cooling Degree Days 0 0  
Month to date cooling degree days 0 0  
Year to date cooling degree days 0 0  
Growing Degree Days 2 (Base 50)    
Moisture  
Dew Point 51 °F    
Average Humidity 90    
Maximum Humidity 100    
Minimum Humidity 80    
Precipitation  
Precipitation 0.91 in 0.31 in 5.40 in (1982)
Month to date precipitation 8.17 4.97  
Year to date precipitation 10.32 15.36  
Since 1 July precipitation 19.31  
Snow  
Snow 0.00 in - - ()
Month to date snowfall 0.0  
Since 1 July snowfall 0.0  
Snow Depth 0.00 in    
Sea Level Pressure  
Sea Level Pressure 29.80 in    
Wind  
Wind Speed 18 mph (South)    
Max Wind Speed 38 mph    
Max Gust Speed 48 mph    
Visibility 4 miles    
Events Rain    
T = Trace of Precipitation, MM = Missing Value Source: NWS Daily Summary

Daily Weather History Graph

Daily Weather History Graph

Search for Another Location

Airport or City:

Trip Planner

Search our weather history database for the weather conditions in past years. The results will help you decide how hot, cold, wet, or windy it might be!

Date:

Astronomy

Feb. 15, 2014 Rise Set
Actual Time 7:12 AM PST 5:50 PM PST
Civil Twilight 6:43 AM PST 6:18 PM PST
Nautical Twilight 6:11 AM PST 6:51 PM PST
Astronomical Twilight 5:39 AM PST 7:23 PM PST
Moon 6:57 PM PST (2/15) 7:12 AM PST (2/15)
Length of Visible Light 11h 35m
Length of Day
10h 38m
Full, 99% of the Moon is Illuminated
Feb 15
Full
Feb 22
Last Quarter
Mar 1
New
Mar 8
First Quarter
Mar 16
Full

Hourly Weather History & Observations

Time (PST) Temp. Dew Point Humidity Pressure Visibility Wind Dir Wind Speed Gust Speed Precip Events Conditions
12:32 AM 54.0 °F 53.1 °F 97% 29.90 in 3.0 mi SSE 12.7 mph - 0.04 in Rain Light Rain
12:41 AM 54.0 °F 53.1 °F 97% 29.90 in 4.0 mi SSE 12.7 mph 24.2 mph 0.05 in Rain Light Rain
12:54 AM 53.6 °F 53.6 °F 100% 29.90 in 2.5 mi SSE 15.0 mph - 0.07 in Rain Rain
12:56 AM 54.0 °F 53.1 °F 97% 29.90 in 2.5 mi SSE 15.0 mph - 0.08 in Rain Rain
1:03 AM 54.0 °F 53.1 °F 97% 29.89 in 3.0 mi SSE 17.3 mph 26.5 mph 0.01 in Rain Rain
1:20 AM 54.0 °F 53.1 °F 97% 29.88 in 2.5 mi SSE 17.3 mph 25.3 mph 0.04 in Rain Rain
1:29 AM 54.0 °F 53.1 °F 97% 29.87 in 3.0 mi SSE 18.4 mph - 0.06 in Rain Light Rain
1:39 AM 54.0 °F 53.1 °F 97% 29.87 in 3.0 mi SSE 19.6 mph 24.2 mph 0.07 in Rain Rain
1:49 AM 54.0 °F 53.1 °F 97% 29.87 in 2.5 mi SSE 20.7 mph - 0.09 in Rain Rain
1:56 AM 54.0 °F 53.1 °F 97% 29.88 in 2.0 mi South 19.6 mph - 0.11 in Rain Rain
2:56 AM 54.0 °F 53.1 °F 97% 29.85 in 2.0 mi SSE 18.4 mph 26.5 mph 0.14 in Rain Rain
3:53 AM 53.6 °F 53.6 °F 100% 29.84 in 3.0 mi SSE 21.9 mph 32.2 mph 0.05 in Rain Light Rain
3:56 AM 54.0 °F 53.1 °F 97% 29.85 in 3.0 mi SSE 20.7 mph 32.2 mph 0.05 in Rain Light Rain
4:11 AM 54.0 °F 54.0 °F 100% 29.85 in 2.0 mi SSE 25.3 mph 32.2 mph 0.02 in Rain Rain
4:31 AM 54.0 °F 54.0 °F 100% 29.84 in 4.0 mi SSE 20.7 mph 29.9 mph 0.04 in Rain Light Rain
4:56 AM 54.0 °F 54.0 °F 100% 29.84 in 4.0 mi SSE 20.7 mph 27.6 mph 0.06 in Rain Light Rain
5:56 AM 55.0 °F 54.0 °F 96% 29.81 in 4.0 mi SSE 20.7 mph 28.8 mph 0.00 in Rain Light Rain
6:56 AM 54.0 °F 53.1 °F 97% 29.79 in 6.0 mi SSE 17.3 mph 29.9 mph 0.00 in Rain Light Rain
7:07 AM 54.0 °F 53.1 °F 97% 29.79 in 7.0 mi SSE 19.6 mph 29.9 mph 0.00 in   Overcast
7:56 AM 53.1 °F 52.0 °F 96% 29.78 in 5.0 mi SSE 17.3 mph 29.9 mph 0.00 in Rain Light Rain
8:14 AM 53.1 °F 52.0 °F 96% 29.76 in 7.0 mi SSE 18.4 mph 26.5 mph 0.00 in Rain Light Rain
8:56 AM 53.1 °F 51.1 °F 93% 29.75 in 5.0 mi South 21.9 mph 27.6 mph 0.00 in Rain Light Rain
9:43 AM 54.0 °F 51.1 °F 90% 29.73 in 9.0 mi South 23.0 mph - 0.01 in   Overcast
9:56 AM 55.0 °F 51.1 °F 86% 29.72 in 8.0 mi South 25.3 mph 31.1 mph 0.01 in   Overcast
10:39 AM 55.0 °F 51.1 °F 86% 29.72 in 7.0 mi South 31.1 mph 43.7 mph N/A   Overcast
10:56 AM 55.0 °F 50.0 °F 83% 29.73 in 7.0 mi South 31.1 mph 44.9 mph N/A   Overcast
11:56 AM 55.0 °F 50.0 °F 83% 29.72 in 8.0 mi South 35.7 mph 43.7 mph N/A   Overcast
12:56 PM 54.0 °F 50.0 °F 86% 29.71 in 4.0 mi South 27.6 mph 33.4 mph 0.01 in Rain Light Rain
1:03 PM 53.1 °F 50.0 °F 89% 29.70 in 1.8 mi South 28.8 mph 36.8 mph 0.02 in Rain Rain
1:22 PM 53.1 °F 51.1 °F 93% 29.69 in 2.0 mi South 27.6 mph - 0.06 in Rain Rain
1:37 PM 53.1 °F 51.1 °F 93% 29.70 in 1.8 mi South 27.6 mph - 0.09 in Rain Rain
1:52 PM 53.6 °F 51.8 °F 94% 29.70 in 1.2 mi South 29.9 mph 36.8 mph 0.13 in Rain Rain
1:56 PM 53.1 °F 52.0 °F 96% 29.71 in 1.2 mi South 28.8 mph 36.8 mph 0.14 in Rain Rain
2:03 PM 53.1 °F 52.0 °F 96% 29.71 in 1.8 mi South 27.6 mph 36.8 mph 0.01 in Rain Light Rain
2:33 PM 53.1 °F 52.0 °F 96% 29.70 in 1.5 mi SSE 25.3 mph 36.8 mph 0.08 in Rain Rain
2:43 PM 53.1 °F 52.0 °F 96% 29.71 in 1.2 mi South 27.6 mph 40.3 mph 0.10 in Rain Rain
2:54 PM 53.6 °F 51.8 °F 94% 29.70 in 1.5 mi SSE 32.2 mph 42.6 mph 0.11 in Rain Light Rain
2:56 PM 53.1 °F 52.0 °F 96% 29.71 in 1.2 mi South 31.1 mph 42.6 mph 0.11 in Rain Light Rain
3:04 PM 53.1 °F 52.0 °F 96% 29.70 in 1.5 mi South 31.1 mph 39.1 mph 0.01 in Rain Light Rain
3:08 PM 54.0 °F 52.0 °F 93% 29.70 in 2.0 mi South 32.2 mph 39.1 mph 0.02 in Rain Rain
3:15 PM 54.0 °F 52.0 °F 93% 29.70 in 2.5 mi South 36.8 mph 48.3 mph 0.02 in Rain Rain
3:25 PM 54.0 °F 52.0 °F 93% 29.71 in 2.0 mi South 31.1 mph 43.7 mph 0.04 in Rain Rain
3:30 PM 54.0 °F 52.0 °F 93% 29.71 in 1.8 mi South 29.9 mph 42.6 mph 0.05 in Rain Rain
3:42 PM 54.0 °F 52.0 °F 93% 29.71 in 2.5 mi South 29.9 mph 41.4 mph 0.08 in Rain Rain
3:49 PM 54.0 °F 52.0 °F 93% 29.71 in 2.5 mi South 25.3 mph 39.1 mph 0.09 in Rain Rain
3:56 PM 54.0 °F 52.0 °F 93% 29.72 in 2.5 mi South 28.8 mph 39.1 mph 0.11 in Rain Light Rain
4:05 PM 54.0 °F 52.0 °F 93% 29.72 in 2.5 mi South 26.5 mph 39.1 mph 0.01 in Rain Rain
4:14 PM 54.0 °F 53.1 °F 97% 29.73 in 2.0 mi South 28.8 mph 40.3 mph 0.03 in Rain Rain
4:33 PM 53.1 °F 52.0 °F 96% 29.76 in 3.0 mi SSW 24.2 mph 36.8 mph 0.07 in Rain Rain
4:56 PM 52.0 °F 50.0 °F 93% 29.78 in 7.0 mi SSW 16.1 mph 25.3 mph 0.08 in Rain Light Rain
5:56 PM 53.1 °F 50.0 °F 89% 29.84 in 6.0 mi SW 11.5 mph - 0.01 in   Overcast
6:56 PM 51.1 °F 48.0 °F 89% 29.88 in 7.0 mi South 5.8 mph - N/A   Overcast
7:56 PM 52.0 °F 46.9 °F 83% 29.90 in 9.0 mi SSW 11.5 mph - N/A   Overcast
8:38 PM 48.9 °F 46.0 °F 90% 29.92 in 9.0 mi Calm Calm - N/A   Mostly Cloudy
8:56 PM 48.0 °F 44.1 °F 86% 29.94 in 7.0 mi Calm Calm - N/A   Overcast
9:56 PM 48.9 °F 45.0 °F 86% 29.97 in 7.0 mi SW 6.9 mph - N/A   Mostly Cloudy
10:18 PM 50.0 °F 46.0 °F 86% 29.98 in 8.0 mi SW 8.1 mph - N/A   Overcast
10:56 PM 50.0 °F 45.0 °F 83% 30.00 in 8.0 mi SW 8.1 mph - N/A   Overcast
11:56 PM 46.9 °F 43.0 °F 86% 30.03 in 9.0 mi NNW 3.5 mph - N/A   Mostly Cloudy